Home   Weather   Gustavia   Past weeks

Past Weather in Gustavia, Saint Barthélemy — Yesterday and Last 2 Weeks

Now
77 °F

Partly cloudy.


Feels Like: 78 °F
Forecast: 77 / 81 °F
Wind: 12 mph from East

Location: Juliana Airport - Saint Maarten

Current Time: Apr 30, 2017 at 10:31:32 pm

Latest Report: Apr 30, 2017 at 10:00 pm


Visibility: N/A

Pressure: 30.07 "Hg

Humidity: 94%

Dew Point: 75 °F

Location of GustaviaLocation

Past Weather in Gustavia — Graph

°F

Gustavia Temperature Yesterday

Maximum temperature yesterday: 84 °F (at 12:00 pm)
Minimum temperature yesterday: 77 °F (at 11:00 pm)
Average temperature yesterday: 80 °F

High & Low Weather Summary for the Past Weeks

 TemperatureHumidityPressure
High84 °F (Apr 16, 10:00 am)100% (Apr 15, 11:00 pm)30.09 "Hg (Apr 15, 11:00 pm)
Low73 °F (Apr 30, 4:00 am)51% (Apr 19, 3:00 pm)29.92 "Hg (Apr 20, 4:00 pm)
Average79 °F75%30.00 "Hg
* Reported Apr 15 11:00 pm — Apr 30 9:00 pm, Gustavia, Weather by CustomWeather, © 2017

Note: Actual official high and low records may vary slightly from our data, if they occured in-between our weather recording intervals... More about our weather records

Advertising

Gustavia Weather History for the Previous 24 Hours

Scroll right to see more
 ConditionsComfort  
Time TempWeatherWind HumidityBarometerVisibility
9:00 pm
Sun, Apr 30
77 °FPassing clouds.13 mph94%30.07 "HgN/A
8:00 pm75 °FSprinkles. Passing clouds.13 mph89%30.04 "HgN/A
7:09 pm75 °FSprinkles. Passing clouds.12 mph100%30.04 "HgN/A
7:00 pm75 °FSprinkles. Passing clouds.16 mph94%30.04 "Hg1 mi
6:00 pm79 °FScattered clouds.15 mph84%30.04 "HgN/A
5:00 pm81 °FScattered clouds.13 mph74%30.01 "HgN/A
4:00 pm81 °FPassing clouds.13 mph79%30.01 "HgN/A
3:00 pm81 °FPassing clouds.12 mph79%30.04 "HgN/A
2:00 pm81 °FScattered showers. Partly sunny.13 mph74%30.04 "HgN/A
1:00 pm81 °FScattered clouds.16 mph74%30.04 "HgN/A
12:00 pm82 °FScattered clouds.15 mph62%30.07 "HgN/A
11:00 am81 °FPartly sunny.13 mph79%30.07 "HgN/A
10:00 am79 °FSprinkles. Broken clouds.16 mph84%30.09 "HgN/A
9:00 am79 °FScattered showers. Partly sunny.13 mph84%30.09 "HgN/A
8:00 am79 °FPartly sunny.12 mph79%30.07 "HgN/A
7:00 am79 °FScattered clouds.16 mph79%30.07 "HgN/A
6:00 am77 °FPartly sunny.13 mph79%30.04 "HgN/A
5:00 am75 °FPassing clouds.13 mph89%30.04 "HgN/A
4:00 am73 °FLight rain. Overcast.15 mph100%30.04 "HgN/A
3:00 am75 °FLots of rain. Partly cloudy.15 mph94%30.04 "Hg1 mi
2:00 am75 °FPassing clouds.18 mph94%30.04 "HgN/A
1:00 am77 °FPassing clouds.15 mph89%30.04 "HgN/A
12:00 am77 °FPassing clouds.12 mph89%30.07 "HgN/A
11:00 pm
Sat, Apr 29
77 °FLight rain. Partly cloudy.15 mph94%30.07 "HgN/A
10:00 pm79 °FPassing clouds.12 mph84%30.07 "HgN/A
Weather by CustomWeather, © 2017

See weather overviewHow to use our weather pages